TimeCDT,TemperatureF,Dew PointF,Humidity,Sea Level PressureIn,VisibilityMPH,Wind Direction,Wind SpeedMPH,Gust SpeedMPH,PrecipitationIn,Events,Conditions,WindDirDegrees,DateUTC
12:53 AM,66.0,57.9,75,30.13,10.0,ESE,5.8,-,N/A,,Clear,110,2011-10-08 05:53:00
1:53 AM,66.9,57.9,73,30.13,10.0,East,6.9,-,N/A,,Clear,100,2011-10-08 06:53:00
2:53 AM,66.9,59.0,76,30.12,10.0,East,8.1,-,N/A,,Clear,100,2011-10-08 07:53:00
3:53 AM,66.0,57.9,75,30.11,10.0,East,6.9,-,N/A,,Clear,100,2011-10-08 08:53:00
4:53 AM,66.0,59.0,78,30.11,10.0,East,6.9,-,N/A,,Clear,100,2011-10-08 09:53:00
5:53 AM,66.0,57.0,73,30.12,10.0,East,5.8,-,N/A,,Clear,100,2011-10-08 10:53:00
6:53 AM,63.0,55.0,75,30.13,10.0,ESE,4.6,-,N/A,,Clear,110,2011-10-08 11:53:00
7:53 AM,64.0,55.9,75,30.13,10.0,Calm,Calm,-,N/A,,Clear,0,2011-10-08 12:53:00
8:53 AM,69.1,54.0,58,30.14,10.0,ESE,10.4,-,N/A,,Clear,110,2011-10-08 13:53:00
9:53 AM,73.9,57.9,57,30.15,10.0,ESE,11.5,-,N/A,,Clear,120,2011-10-08 14:53:00
10:53 AM,78.1,59.0,52,30.14,10.0,ESE,12.7,-,N/A,,Clear,110,2011-10-08 15:53:00
11:53 AM,81.0,60.1,49,30.13,10.0,East,11.5,19.6,N/A,,Partly Cloudy,100,2011-10-08 16:53:00
12:53 PM,84.2,57.2,40,30.10,10.0,ESE,12.7,-,N/A,,Scattered Clouds,110,2011-10-08 17:53:00
1:53 PM,84.9,57.9,40,30.09,10.0,ESE,12.7,-,N/A,,Scattered Clouds,110,2011-10-08 18:53:00
2:53 PM,86.0,57.0,37,30.06,10.0,East,15.0,21.9,N/A,,Scattered Clouds,90,2011-10-08 19:53:00
3:53 PM,84.9,57.0,38,30.05,10.0,ESE,16.1,20.7,N/A,,Partly Cloudy,110,2011-10-08 20:53:00
4:53 PM,86.0,57.0,37,30.04,10.0,East,13.8,19.6,N/A,,Partly Cloudy,90,2011-10-08 21:53:00
5:53 PM,82.9,55.0,38,30.02,10.0,ESE,12.7,-,N/A,,Clear,120,2011-10-08 22:53:00
6:53 PM,80.1,55.9,43,30.03,10.0,East,8.1,-,N/A,,Clear,100,2011-10-08 23:53:00
7:53 PM,78.1,57.0,48,30.04,10.0,ESE,12.7,-,N/A,,Clear,110,2011-10-09 00:53:00
8:53 PM,75.9,59.0,56,30.07,10.0,ESE,9.2,-,N/A,,Clear,110,2011-10-09 01:53:00
9:53 PM,73.9,59.0,59,30.08,10.0,ESE,12.7,-,N/A,,Clear,110,2011-10-09 02:53:00
10:53 PM,73.0,57.9,59,30.08,10.0,ESE,10.4,-,N/A,,Clear,110,2011-10-09 03:53:00
11:53 PM,71.1,59.0,66,30.08,10.0,ESE,5.8,-,N/A,,Clear,110,2011-10-09 04:53:00